Location: ?astrovice
(49.6513°N, 14.9287°E)
Time: 23:16:07
(UTC+00:00)

Cosmos 1934 Rocket - Pass Details

Date: 09 April 2020
Orbit: 937 x 1000 km, 83.0° (Epoch: 23 May)

Event Time Altitude Azimuth Distance (km) Brightness Sun altitude
Rises 20:17:08 0° 353° (N) 3,700 7.8 -22.1°
Reaches altitude 10° 20:19:48 10° 360° (N) 2,739 6.9 -22.5°
Maximum altitude 20:25:49 47° 73° (ENE) 1,269 4.4 -23.1°
Enters shadow 20:26:56 42° 102° (ESE) 1,343 4.3 -23.2°
